Location: Arlington
(40.6323°N, 74.1651°W)
Time: 05:11:01
(UTC+00:00)

DELTA 2 R/B (1) - Pass Details

Date: 22 November 2019
Orbit: 791 x 802 km, 39.6° (Epoch: 14 December)

Event Time Altitude Azimuth Distance (km) Brightness Sun altitude
Rises 23:15:00 0° 254° (WSW) 3,294 8.4 -18.9°
Reaches altitude 10° 23:17:29 10° 252° (WSW) 2,366 7.3 -19.4°
Maximum altitude 23:23:03 72° 169° (S) 838 3.6 -20.5°
Enters shadow 23:24:57 42° 97° (E) 1,130 3.9 -20.8°
